Location: Bessat
(45.8735°N, 1.9924°E)
Time: 23:09:12
(UTC+00:00)

Cosmos 1602 - Pass Details

Date: 11 May 2021
Orbit: 514 x 532 km, 82.5° (Epoch: 24 June)

Event Time Altitude Azimuth Distance (km) Brightness Sun altitude
Rises 20:19:48 0° 352° (N) 2,657 8.1 -10.5°
Reaches altitude 10° 20:21:57 10° 354° (N) 1,767 7.1 -10.8°
Maximum altitude 20:25:50 77° 81° (E) 543 3.7 -11.3°
Enters shadow 20:29:18 13° 167° (SSE) 1,597 5.7 -11.8°
